Change the Weather History Date:

Thursday, April 11, 2013

  Actual Average (KFNT) Record (KFNT)
Temperature  
Mean Temperature 36 °F 45 °F  
Max Temperature 38 °F 55 °F 82 °F (1945)
Min Temperature 35 °F 34 °F 21 °F (1989)
Degree Days  
Heating Degree Days 28 20  
Month to date heating degree days 245  
Since 1 July heating degree days 6290  
Cooling Degree Days 0 0  
Month to date cooling degree days 0  
Year to date cooling degree days 0  
Moisture  
Dew Point 34 °F    
Average Humidity 91    
Maximum Humidity 93    
Minimum Humidity 81    
Precipitation  
Precipitation 0.00 in 0.10 in 1.58 in (1922)
Month to date precipitation 1.03  
Year to date precipitation 6.05  
Snow  
Snow 0.00 in 0.10 in 0.90 in (2000)
Month to date snowfall 1.3  
Since 1 July snowfall 46.4  
Snow Depth -    
Sea Level Pressure  
Sea Level Pressure 29.87 in    
Wind  
Wind Speed 11 mph (ENE)    
Max Wind Speed 17 mph    
Max Gust Speed 29 mph    
Visibility 5 miles    
Events Snow    
T = Trace of Precipitation, MM = Missing Value Source: NWS Daily Summary

Daily Weather History Graph

Daily Weather History Graph

Search for Another Location

Airport or City:

Trip Planner

Search our weather history database for the weather conditions in past years. The results will help you decide how hot, cold, wet, or windy it might be!

Date:

Astronomy

Apr. 11, 2013 Rise Set
Actual Time 7:00 AM EDT 8:14 PM EDT
Civil Twilight 6:31 AM EDT 8:44 PM EDT
Nautical Twilight 5:56 AM EDT 9:19 PM EDT
Astronomical Twilight 5:19 AM EDT 9:56 PM EDT
Moon 7:29 AM EDT (4/11) 9:51 PM EDT (4/11)
Length of Visible Light 14h 12m
Length of Day
13h 13m
New Moon, 2% of the Moon is Illuminated
Apr 11
New Moon
Apr 18
First Quarter
Apr 25
Full
May 2
Last Quarter
May 9
New

Hourly Weather History & Observations

Time (EDT) Temp. Windchill Dew Point Humidity Pressure Visibility Wind Dir Wind Speed Gust Speed Precip Events Conditions
12:14 AM 37.8 °F 31.3 °F 33.1 °F 83% 29.99 in 10.0 mi NE 9.2 mph - N/A   Overcast
12:35 AM 37.9 °F 31.5 °F 33.1 °F 83% 29.99 in 10.0 mi NE 9.2 mph - N/A   Overcast
12:54 AM 37.8 °F 30.2 °F 32.9 °F 83% 29.98 in 10.0 mi NNE 11.5 mph - N/A   Overcast
1:15 AM 37.8 °F 30.7 °F 32.9 °F 83% 29.97 in 10.0 mi NE 10.4 mph 17.3 mph N/A   Overcast
1:35 AM 37.8 °F 30.7 °F 32.9 °F 83% 29.96 in 10.0 mi NE 10.4 mph 17.3 mph N/A   Overcast
1:54 AM 37.9 °F 31.5 °F 32.9 °F 82% 29.98 in 10.0 mi ENE 9.2 mph - N/A   Overcast
2:15 AM 38.3 °F 33.2 °F 32.9 °F 81% 29.97 in 10.0 mi ENE 6.9 mph - N/A   Overcast
2:35 AM 38.3 °F 35.9 °F 33.1 °F 81% 30.00 in 10.0 mi East 3.5 mph - N/A   Overcast
2:54 AM 38.3 °F 33.2 °F 33.4 °F 83% 29.99 in 5.0 mi ENE 6.9 mph - N/A   Unknown
3:15 AM 37.6 °F 29.6 °F 34.0 °F 87% 29.91 in 4.0 mi NE 12.7 mph 16.1 mph N/A Snow Light Snow
3:34 AM 37.6 °F 30.5 °F 34.3 °F 88% 29.91 in 4.0 mi NE 10.4 mph - N/A Snow Light Snow
3:54 AM 37.4 °F 32.1 °F 34.5 °F 89% 29.93 in 3.0 mi NE 6.9 mph - N/A Snow Light Snow
4:15 AM 37.4 °F 31.4 °F 34.7 °F 90% 29.93 in 2.5 mi ENE 8.1 mph - N/A Snow Light Snow
4:34 AM 37.4 °F 32.1 °F 34.7 °F 90% 29.94 in 2.5 mi ENE 6.9 mph - N/A Snow Light Snow
4:55 AM 37.2 °F 31.2 °F 34.9 °F 91% 29.94 in 4.0 mi NE 8.1 mph - N/A Snow Light Snow
5:14 AM 37.0 °F 30.4 °F 34.9 °F 92% 29.93 in 7.0 mi NE 9.2 mph - N/A Snow Light Snow
5:34 AM 36.9 °F 30.7 °F 34.7 °F 92% 29.92 in 10.0 mi NE 8.1 mph - N/A   Overcast
5:55 AM 36.7 °F 28.9 °F 34.5 °F 92% 29.92 in 7.0 mi ENE 11.5 mph 20.7 mph N/A Snow Light Snow
6:14 AM 36.5 °F 29.2 °F 34.3 °F 92% 29.93 in 5.0 mi NE 10.4 mph 17.3 mph N/A Snow Light Snow
6:35 AM 36.5 °F 28.7 °F 34.0 °F 91% 29.92 in 5.0 mi NE 11.5 mph 16.1 mph N/A Snow Light Snow
6:55 AM 36.0 °F 26.3 °F 33.8 °F 92% 29.91 in 10.0 mi ENE 16.1 mph 21.9 mph N/A   Overcast
7:14 AM 35.6 °F 31.7 °F 33.6 °F 92% 29.92 in 5.0 mi NE 4.6 mph 28.8 mph N/A Snow Light Snow
7:35 AM 35.8 °F 28.3 °F 33.4 °F 91% 29.95 in 10.0 mi NE 10.4 mph 16.1 mph N/A   Overcast
7:55 AM 36.0 °F 28.0 °F 33.4 °F 91% 29.96 in 10.0 mi ENE 11.5 mph 19.6 mph N/A   Overcast
8:14 AM 36.0 °F 29.0 °F 33.4 °F 91% 29.96 in 2.5 mi ENE 9.2 mph 17.3 mph N/A   Overcast
8:35 AM 35.8 °F 28.8 °F 33.6 °F 92% 29.96 in 4.0 mi ENE 9.2 mph - N/A   Overcast
8:55 AM 35.8 °F 27.8 °F 33.8 °F 92% 29.95 in 2.5 mi ENE 11.5 mph - N/A   Overcast
9:14 AM 35.8 °F 27.8 °F 33.8 °F 92% 29.94 in 2.5 mi ENE 11.5 mph 18.4 mph N/A   Overcast
9:35 AM 36.0 °F 26.7 °F 33.8 °F 92% 29.94 in 2.0 mi ENE 15.0 mph 21.9 mph N/A   Overcast
9:54 AM 35.8 °F 26.1 °F 33.8 °F 92% 29.92 in 1.2 mi ENE 16.1 mph 23.0 mph N/A Snow Light Snow
10:15 AM 35.8 °F 26.9 °F 33.8 °F 92% 29.92 in 1.2 mi ENE 13.8 mph 19.6 mph N/A Snow Light Snow
10:35 AM 35.6 °F 27.1 °F 33.8 °F 93% 29.93 in 1.5 mi ENE 12.7 mph 19.6 mph N/A Snow Light Snow
10:54 AM 35.8 °F 28.8 °F 33.8 °F 92% 29.93 in 2.0 mi ENE 9.2 mph 17.3 mph N/A   Overcast
11:15 AM 35.8 °F 26.9 °F 34.0 °F 93% 29.92 in 1.8 mi ENE 13.8 mph 20.7 mph N/A Snow Light Snow
11:34 AM 36.3 °F 28.4 °F 34.3 °F 93% 29.94 in 2.0 mi ENE 11.5 mph 17.3 mph N/A   Overcast
11:54 AM 36.7 °F 26.9 °F 34.9 °F 93% 29.91 in 1.8 mi ENE 17.3 mph 21.9 mph N/A Snow Light Snow
12:15 PM 36.7 °F 29.4 °F 34.9 °F 93% 29.91 in 3.0 mi ENE 10.4 mph 21.9 mph N/A   Overcast
12:34 PM 36.7 °F 28.0 °F 34.7 °F 93% 29.90 in 2.5 mi ENE 13.8 mph 21.9 mph N/A Snow Light Snow
1:15 PM 36.9 °F 28.7 °F 34.7 °F 92% 29.89 in 10.0 mi ENE 12.7 mph 20.7 mph N/A   Overcast
1:34 PM 37.0 °F 27.7 °F 34.7 °F 91% 29.89 in 1.8 mi ENE 16.1 mph 25.3 mph N/A Snow Light Snow
1:55 PM 37.4 °F 28.5 °F 34.9 °F 91% 29.88 in 5.0 mi East 15.0 mph 20.7 mph N/A   Overcast
2:15 PM 37.0 °F 27.7 °F 34.5 °F 91% 29.87 in 10.0 mi ENE 16.1 mph 21.9 mph N/A   Overcast
2:34 PM 37.4 °F 28.2 °F 34.7 °F 90% 29.87 in 5.0 mi ENE 16.1 mph 21.9 mph N/A   Overcast
2:55 PM 37.0 °F 28.1 °F 34.2 °F 89% 29.85 in 4.0 mi ENE 15.0 mph 21.9 mph N/A   Overcast
3:15 PM 36.9 °F 27.1 °F 34.3 °F 91% 29.85 in 7.0 mi East 17.3 mph 23.0 mph N/A   Overcast
3:34 PM 36.9 °F 28.2 °F 34.3 °F 91% 29.84 in 10.0 mi East 13.8 mph 23.0 mph N/A   Overcast
3:55 PM 37.0 °F 29.3 °F 34.3 °F 90% 29.84 in 5.0 mi East 11.5 mph 23.0 mph N/A   Overcast
4:14 PM 37.0 °F 28.9 °F 34.7 °F 91% 29.82 in 4.0 mi East 12.7 mph 18.4 mph N/A   Overcast
4:34 PM 36.9 °F 27.8 °F 34.7 °F 92% 29.82 in 1.8 mi East 15.0 mph 25.3 mph N/A Snow Light Snow
4:54 PM 36.5 °F 27.8 °F 34.3 °F 92% 29.81 in 2.0 mi East 13.8 mph 18.4 mph N/A Snow Light Snow
5:14 PM 36.7 °F 27.6 °F 34.7 °F 93% 29.80 in 7.0 mi East 15.0 mph 20.7 mph N/A   Overcast
5:35 PM 36.7 °F 27.6 °F 34.7 °F 93% 29.79 in 2.5 mi East 15.0 mph 27.6 mph N/A Snow Light Snow
5:54 PM 36.7 °F 27.6 °F 34.7 °F 93% 29.79 in 3.0 mi East 15.0 mph 23.0 mph N/A Snow Light Snow
6:15 PM 36.5 °F 28.7 °F 34.7 °F 93% 29.80 in 4.0 mi East 11.5 mph 18.4 mph N/A   Overcast
6:34 PM 36.5 °F 29.2 °F 34.2 °F 91% 29.80 in 5.0 mi East 10.4 mph 16.1 mph N/A   Overcast
6:54 PM 36.5 °F 29.7 °F 34.3 °F 92% 29.80 in 5.0 mi ENE 9.2 mph - N/A   Overcast
7:15 PM 36.5 °F 29.2 °F 34.3 °F 92% 29.80 in 4.0 mi ENE 10.4 mph - N/A   Overcast
7:34 PM 36.5 °F 28.7 °F 34.2 °F 91% 29.79 in 3.0 mi ENE 11.5 mph - N/A   Overcast
7:55 PM 36.1 °F 27.7 °F 34.2 °F 93% 29.77 in 3.0 mi ENE 12.7 mph 19.6 mph N/A   Overcast
8:15 PM 36.1 °F 27.7 °F 34.3 °F 93% 29.77 in 3.0 mi ENE 12.7 mph 16.1 mph N/A   Overcast
8:34 PM 36.1 °F 29.9 °F 34.3 °F 93% 29.76 in 4.0 mi ENE 8.1 mph - N/A   Overcast
8:55 PM 36.1 °F 28.7 °F 34.3 °F 93% 29.76 in 7.0 mi ENE 10.4 mph 18.4 mph N/A   Overcast
9:15 PM 36.1 °F 27.3 °F 34.3 °F 93% 29.74 in 4.0 mi ENE 13.8 mph 18.4 mph N/A Snow Light Snow
9:34 PM 36.1 °F 28.2 °F 34.3 °F 93% 29.73 in 5.0 mi ENE 11.5 mph 20.7 mph N/A   Overcast
9:55 PM 36.1 °F 27.3 °F 34.3 °F 93% 29.72 in 5.0 mi East 13.8 mph - N/A   Overcast
10:14 PM 36.1 °F 27.3 °F 34.2 °F 93% 29.67 in 5.0 mi ENE 13.8 mph - N/A   Overcast
10:34 PM 36.1 °F 29.3 °F 34.2 °F 93% 29.69 in 10.0 mi ENE 9.2 mph 17.3 mph N/A   Overcast
10:55 PM 36.3 °F 28.4 °F 34.2 °F 92% 29.69 in 10.0 mi ENE 11.5 mph 16.1 mph N/A   Overcast
11:14 PM 36.0 °F 27.5 °F 33.8 °F 92% 29.67 in 10.0 mi ENE 12.7 mph 17.3 mph N/A   Overcast
11:34 PM 36.0 °F 28.5 °F 33.8 °F 92% 29.68 in 10.0 mi ENE 10.4 mph 18.4 mph N/A   Overcast
11:55 PM 35.8 °F 31.9 °F 33.6 °F 92% 29.67 in 2.5 mi NE 4.6 mph - N/A Snow Light Snow